Погода в Бресте

Погода в Бресте : погода сейчас, прогноз погоды и архив. Всё, что Вы хотите узнать о погоде в Бресте!

Поиск расширенной информации на нашем сайте:

Другие новости

Новости СМИ2

Главная страница сайта

Новости сайта

03.07.2017

Напоминаем, что на нашем специализированном сайте Метеоцентр.Азия вы можете получить высокодетализированные автоматические прогнозы погоды по пунктам России, СНГ и мира в авиационном формате (включающие направление и скорость ветра, видимость, явления погоды, количество и форму облачности, нижнюю и верхнюю границу облачности).


Погода в Бресте - сегодня

Время (UTC), дата Ветер
(°,м/с) 
Видим.   Явления Облачность Т
(°С)
Тd
(°С)
f(%) Тe
(°С)
Pmin
(гПа)
dP
(гПа)
Po
(мм)
O2
(г/м3)
Тmin Tmax R s Состояние
почвы
21 17.08.18 тихо ()   15000 м    3/0 средняя 
[Ac trans]
+17.7 +15.5 87 +27  1018.4  0.3  751  281           
00 18.08.18 тихо ()   20000 м    ясно 
+16.5 +15 91 +25  1018.4  751  282           
03 18.08.18 тихо ()   20000 м    3/0 средняя 
[Ac trans]
+15.1 +14.3 95 +23  1018.6  0.1  751  284           
06 18.08.18 тихо ()   20000 м    4/4 2000 м 
[Sc]
+19.3 +17.3 88 +32  1019.3  0.9  752  279  +14.7         
09 18.08.18 040 (СВ) 30000 м    8/8 1000 м кучево-дожд. 
[Cb calv]
+25.9 +17 58 +38  1019  0.2  752  273           
12 18.08.18 010 (С) 30000 м  {гроза, ливн. осадки}  5/5 1000 м кучево-дожд. 
[Cb calv]
+27.6 +15.3 47 +37  1018.3  -0.6  751  272      0.1     
15 18.08.18 360 (С) 30000 м    8/6 1000 м кучево-дожд., средняя 
[Cb calv|Ac trans]
+27.5 +12.7 40 +32  1018.2  -0.1  751  273      0.1     
18 18.08.18 тихо ()   30000 м    4/0 средняя, верхняя 
[Ac trans|Cs]
+21.9 +14.8 64 +30  1019.1  0.5  752  277    +28.5  0.1     
21 18.08.18 тихо ()   15000 м    ясно 
+18.3 +16.6 90 +30  1020.2  0.8  752  280           
00 19.08.18 тихо ()   20000 м    ясно 
+16.3 +15.5 95 +26  1020.7  0.4  753  283           
03 19.08.18 тихо ()   30000 м    ясно 
+16.1 +15.1 94 +25  1020.7  753  283           
06 19.08.18 060 (СВ) 10 км    4/0 средняя, верхняя 
[Ac trans|Ci fib]
+20.5 +16.9 80 +33  1020.8  0.4  753  278  +15.3         
09 19.08.18 350 (С) 30000 м    8/4 1000 м верхняя 
[Cu hum|Ci fib]
+25.5 +16.9 59 +38  1020.9  0.4  753  274           
12 19.08.18 250 (З) 30000 м    8/8 600 м кучево-дожд. 
[Cb calv]
+28.3 +14.9 44 +37  1019.4  -1.3  752  272           
15 19.08.18 230 (ЮЗ) 30000 м    10/3 600 м кучево-дожд., средняя 
[Cb calv|Ac As]
+27.2 +14.9 47 +36  1018.4  -1  751  272           
18 19.08.18 тихо ()   30000 м    8/0 средняя 
[Ac trans]
+22 +17.4 75 +35  1018.7  -0.1  751  276    +28.9       
21 19.08.18 010 (С) 20000 м    4/0 средняя 
[Ac trans]
+19.3 +17.4 89 +34  1018.8  -0.1  751  279           
00 20.08.18 130 (ЮВ) 12000 м    ясно 
+17.5 +16.9 96 +31  1017.9  -1  751  280           
03 20.08.18 160 (Ю) 30000 м    8/3 600 м кучево-дожд., средняя 
[Cb calv|Ac trans]
+18.1 +16.8 92 +32  1017.2  -0.6  750  280           
06 20.08.18 230 (ЮЗ) 10 км  слаб. ливневой дождь  9/8 600 м кучево-дожд., средняя 
[Cb calv|Ac trans]
+19.8 +17.4 86 +34  1016.6  -0.5  750  278  +17.1       
09 20.08.18 200 (Ю) 30000 м  {ливн. осадки}  ясно 
+26.9 +17.7 57 +41  1015.7  -0.4  749  271      0.8     
12 20.08.18 280 (З) 30000 м  {ливн. осадки}  8/8 600 м кучево-дожд. 
[Cb calv]
+29.6 +14.6 40 +38  1014.2  -1.3  748  269           
15 20.08.18 210 (ЮЗ) 30000 м  в посл. час гроза{ливн. осадки}  9/9 600 м кучево-дожд. 
[Cb calv]
+28.4 +17.3 51 +41  1012.3  -1.9  747  269      0.7     
18 20.08.18 130 (ЮВ) 30000 м  гроза без осадков{ливн. осадки}  9/9 600 м кучево-дожд. 
[Cb cap]
+24 +16.8 64 +36  1012  -0.6  747  273    +30.7  0.7     
21 20.08.18 260 (З) 30000 м  {гроза}  ясно 
+22.9 +16.9 69 +35  1013.1  747  274           
Время (UTC), дата Ветер
(°,м/с) 
Видим.   Явления Облачность Т
(°С)
Тd
(°С)
f(%) Тe
(°С)
Pmin
(гПа)
dP
(гПа)
Po
(мм)
O2
(г/м3)
Тmin Tmax R s Состояние
почвы

Для получения пояснительной информации подведите курсор к названию столбца.

ПОГОДА в Бресте - архив

Всё, что Вы хотите узнать о погоде в Бресте - удобно и подробно!

Выберите нужную дату (начиная с 1 января 2015* года) и нажмите кнопку "Найти".
Будут отображены архивные сводки погоды по пункту Брест, начиная с указанной даты.


Отображать данные в формате CSV (для использования в таблицах Excel)


Внимание! Наш архив погоды предназначен исключительно для личного некоммерческого использования в познавательных целях. Если Вам необходимы официальные справки о состоянии погоды (для производственных, юридических, коммерческих и т.п. целей), обращайтесь в органы Росгидромета.

*Примечание: данная дата относится к архиву по метеостанциям СССР (Россия, СНГ, Балтия).
Архив по метеостанциям Зарубежной Европы и Азии (кроме Китая) хранится 10 дней, по другим регионам земного шара (Китай, Африка, Америка, Австралия, Океания) - 1 день.

Брест - район местоположения метеостанции


Название, широта, долгота, высота метеостанции:
Брест 52.1°ш. 23.7°д. 146 м над ур. моря [Беларусь]

Дополнительная информация

В oтличие oт бoльшинства пoгoдных сайтoв мы публикуем пoдрoбную метеoинфoрмацию в детальнoм прoфессиoнальнoм фoрмате.

Характеристики температуры и влажнoсти вoздуха измеряются на высoте 2 м в тени вдали oт зданий и деревьев.
Скoрoсть ветра измеряется на высoте 10 м (на урoвне рoста челoвека скoрoсть ветра ниже в 1.5-2 раза). Если метеoстанция нахoдится в гoрoде или в лесу, тo скoрoсть ветра занижена на 2-4 м/с пo сравнению с oткрытым местoм. Скoрoсть ветра над акватoриями крупных рек и oзёр, а также на вершинах хoлмoв на 2-5 м/с выше, чем в oбычных услoвиях.
Атмoсфернoе давление в разных тoчках местнoсти мoжет значительнo oтличаться oт давления на метеoстанции, в зависимoсти oт услoвий рельефа (при пoдъёме на 10 м давление пoнижается примернo на 1 мм рт.ст.).